Miscellaneous Local Product
Issued by NWS Hastings, NE

Home | Current Version | Previous Version | Graphics & Text | Print | Product List | Glossary On
Versions: 1 2 3 4 5 6 7 8 9 10 11 12 13 14 15 16 17 18 19 20 21 22 23 24 25 26 27 28 29 30 31 32 33 34 35 36 37 38 39 40 41 42 43 44 45 46 47 48 49 50
000
AXUS43 KGID 040302
MISGRI

GID CWA HOURLY WEATHER ROUNDUP
NATIONAL WEATHER SERVICE HASTINGS NE
1000 PM CDT MON AUG 03 2015

NOTE: "FAIR" INDICATES FEW OR NO CLOUDS BELOW 12,000 FEET WITH NO
SIGNIFICANT WEATHER AND/OR OBSTRUCTIONS TO VISIBILITY.

...SOUTH CENTRAL NEBRASKA...

CITY           SKY/WX    TMP DP  RH WIND       PRES   REMARKS
GRAND ISLAND   PTCLDY    71  66  84 E7        29.97R
HASTINGS       PTCLDY    73  68  84 E8        29.96R
KEARNEY        MOCLDY    72  64  78 E7        29.96R
ORD            MOCLDY    70  63  78 E3        29.97R
YORK           MOCLDY    70  64  83 E7        29.97R
AURORA         PTCLDY    70  67  92 E6        29.97R
LEXINGTON      MOCLDY    74  70  85 E8        29.97R
HOLDREGE       MOCLDY    73  68  85 E10       29.96R
HEBRON         MOCLDY    75  65  73 E7        29.94R

...NEBRASKA PANHANDLE...

CITY           SKY/WX    TMP DP  RH WIND       PRES   REMARKS
CHADRON        CLOUDY    79  61  53 S5        29.91R
ALLIANCE       CLOUDY    75  62  64 S8        29.96S
SCOTTSBLUFF    CLOUDY    75  60  59 E6        29.96S
SIDNEY         CLOUDY    76  50  40 SW14      30.02R

...WESTERN AND NORTH CENTRAL NEBRASKA...

CITY           SKY/WX    TMP DP  RH WIND       PRES   REMARKS
VALENTINE      NOT AVBL
AINSWORTH      MOCLDY    70  62  74 E7        29.99R
ONEILL         CLOUDY    74  65  71 SE5       29.99R
BROKEN BOW     PTCLDY    73  62  68 E7        29.98R
IMPERIAL       CLOUDY    79  59  50 SW9       29.97R
NORTH PLATTE   CLOUDY    74  70  87 E9        29.96R
MCCOOK         CLOUDY    79  66  64 E6        29.93R

...EASTERN NEBRASKA...

CITY           SKY/WX    TMP DP  RH WIND       PRES   REMARKS
NORFOLK        PTCLDY    68  63  84 SE5       29.98R
SO SIOUX CITY  MOCLDY    72  62  71 E5        29.96R
TEKAMAH        CLOUDY    74  68  81 E3        29.96R
COLUMBUS       PTCLDY    64  59  82 NE3       29.98R
ALBION         PTCLDY    68  63  84 E7        29.99R
OMAHA EPPLEY   MOCLDY    76  65  68 SE5       29.96R
OFFUTT AFB     CLEAR     67  65  94 E3        29.95R
MILLARD        PTCLDY    74  65  74 CALM      29.95R
LINCOLN        MOCLDY    75  64  68 E7        29.96R
NEBRASKA CITY  MOCLDY    71  62  74 NE3       29.96R
BEATRICE       MOCLDY    74  68  83 E7        29.95R
FALLS CITY     PTCLDY    74  70  87 E5        29.94R

...NORTHERN KANSAS...

CITY           SKY/WX    TMP DP  RH WIND       PRES   REMARKS
GOODLAND       CLOUDY    75  55  49 VRB3      29.98S
HILL CITY      CLOUDY    82  65  56 S5        29.93R
NORTON         CLEAR     79  61  53 E3        29.93R
PHILLIPSBURG   CLEAR     84  70  61 E9        29.92R
SMITH CENTER   CLEAR     77  70  78 E17       29.92S
HAYS           MOCLDY    81  63  54 S10       29.93R
RUSSELL        MOCLDY    80  68  66 S9        29.91R
CONCORDIA      CLOUDY    78  73  84 E8        29.92R
SALINA         MOCLDY    84  70  62 S7        29.91R
TOPEKA         PTCLDY    79  73  82 E6        29.91R



USA.gov is the U.S. government's official web portal to all federal, state and local government web resources and services.